www.pogodaiklimat.ru

Погода и климат >> Архив погоды >> Россия >> Якутия >> Покровск


ПОГОДА в Покровске

  • Прогноз погоды в Покровске
  • Монитор погоды в Покровске
  • Климат города

АРХИВ ПОГОДЫ в Покровске

Время (UTC), дата Ветер
(напр.,м/с)
 
Видим.   Явления Облачность Т
(С)
Тd
(С)
f
(%)
Тe
(С)
Тes
(С)
Комфортность P
(гПа)
Po
(гПа)
Тmin
(С)
Tmax
(С)
R
(мм)
R24
(мм)
S
(см)
12 18.09 З 2 20 км 6/0
[Ac trans]
+1.4 -2.4 76 -2 -2 1010.3 995.3 +13.4
15 18.09 З 3 20 км 6/0
[Ac trans]
-2.2 -3.7 89 -7 -7 1010.8 995.6
18 18.09 З 2 20 км 6/0
[Ac trans]
+0.5 -2.1 83 -3 -3 1010.7 995.7
21 18.09 З 1 50 км 10/0
[Ac und]
+2.0 +0.4 89 0 0 1011.5 996.5
00 19.09 З 2 50 км слабый дождь 10/0
[As op]
+4.4 +3.7 95 +1 +2 1011.2 996.4 -2.2 0.4
03 19.09 З 3 50 км {дождь} 10/10 600 м
[Sc]
+6.7 +3.4 79 +4 +4 1011.3 996.6
06 19.09 ЮЗ 4 50 км {дождь} 9/6 600 м
[Sc Ac trans]
+8.4 +3.5 71 +5 +6 1011.4 996.7
09 19.09 З 3 50 км 10/8 600 м
[Sc Ac trans]
+8.1 +1.8 64 +6 +6 1012.0 997.3
12 19.09 З 2 20 км 9/9 600 м
[Sc]
+5.5 +0.9 72 +3 +3 1013.3 998.4 +8.8 0.0
15 19.09 З 1 20 км ясно -1.7 -2.6 94 -4 -4 1014.0 998.7
18 19.09 З 3 20 км ясно -4.2 -4.7 96 -10 -10 1014.7 999.3
21 19.09 З 2 50 км 8/0
[Ac trans Ci fib]
-4.9 -5.9 93 -9 -9 1014.5 999.1
00 20.09 ЮЗ 2 50 км 8/0
[Ac trans Ci fib]
+2.0 -0.2 85 -1 0 1014.6 999.5 -4.9
03 20.09 З 3 50 км 3/0
[Ac trans]
+8.4 -1.6 49 +6 +10 1014.4 999.7
06 20.09 СЗ 4 50 км 8/0
[Ac trans]
+11.8 -1.2 40 +10 +11 1014.5 999.9
09 20.09 С 2 50 км 6/0
[Ac trans]
+13.3 -1.6 36 +13 +13 1014.4 999.9
12 20.09 З 3 20 км 3/0
[Ac trans]
+4.1 -2.7 61 +1 +1 1016.4 1001.4 +14.3
15 20.09 З 3 20 км 3/0
[Ac trans]
+0.2 -3.1 78 -4 -4 1017.1 1001.9
18 20.09 З 3 20 км ясно -2.5 -4.7 85 -8 -8 1017.8 1002.5
21 20.09 З 2 50 км 3/0
[Ac trans]
-4.7 -5.6 93 -9 -9 1019.0 1003.5
00 21.09 ЮЗ 3 50 км 9/0
[Ac trans]
+3.2 -1.9 69 -0 0 1019.0 1003.9 -4.7
03 21.09 З 3 50 км 6/0
[Ac trans]
+11.4 +0.5 47 +10 +13 1018.8 1004.2
06 21.09 З 4 50 км 6/3 600 м
[Cb calv Ac trans]
+12.9 -0.8 39 +12 +13 1018.4 1003.9
09 21.09 З 4 50 км 4/4 600 м
[Sc]
+12.4 -0.6 41 +11 +11 1018.4 1003.9
12 21.09 СЗ 2 20 км ясно +3.4 -2.3 66 +1 +1 1020.0 1004.9 +14.1
15 21.09 З 2 50 км ясно -3.9 -5.8 87 -8 -8 1022.2 1006.7
18 21.09 З 3 50 км ясно -5.9 -7.0 92 -12 -12 1022.9 1007.3
21 21.09 З 3 50 км 3/0
[Ci fib]
-6.4 -7.2 94 -12 -12 1022.7 1007.1
00 22.09 ЮЗ 4 50 км 8/8 600 м
[Sc]
+1.7 -3.3 69 -3 -3 1023.2 1008.0 -6.4
03 22.09 З 4 50 км 10/10 600 м
[Sc]
+7.7 -2.6 48 +5 +5 1021.9 1007.1
06 22.09 ЮЗ 5 50 км 4/3 600 м
[Sc Ci fib]
+10.4 -0.6 46 +8 +9 1019.7 1005.1
09 22.09 ЮЗ 4 50 км 4/4 600 м
[Sc]
+11.1 -3.1 37 +9 +9 1018.1 1003.5
12 22.09 ЮЗ 3 20 км 4/4 600 м
[Sc]
+8.9 +1.4 59 +7 +7 1017.3 1002.6 +11.5
15 22.09 ЮЗ 4 20 км 10/10 600 м
[Sc]
+9.5 -1.3 47 +7 +7 1016.2 1001.5
18 22.09 ЮЗ 2 20 км 10/10 600 м
[Sc]
+8.2 +0.1 57 +7 +7 1015.3 1000.5
21 22.09 З 3 50 км 10/10 600 м
[Sc]
+7.5 +1.6 66 +5 +5 1014.8 1000.0
00 23.09 З 5 50 км 10/10 600 м
[Sc]
+8.5 +2.3 65 +5 +5 1014.1 999.4 -7.5
03 23.09 З 4 50 км {дождь} 8/4 600 м
[Sc Ac trans Ci fib]
+7.8 +6.7 93 +4 +6 1013.2 998.4
06 23.09 З 3 50 км {дождь} 10/8 600 м
[Sc Ac trans]
+9.1 +6.5 84 +7 +7 1013.2 998.5
09 23.09 СЗ 4 50 км 10/4 600 м
[Sc Ac trans Ci fib]
+8.8 +3.2 68 +6 +6 1013.4 998.7
12 23.09 СЗ 3 20 км 10/10 600 м
[Sc]
+6.2 +1.7 73 +3 +3 1015.0 1000.1 +10.4 0.4
15 23.09 З 3 20 км 6/6 600 м
[Sc]
+1.4 -0.3 88 -3 -3 1015.8 1000.7
18 23.09 З 3 20 км 8/8 600 м
[Sc]
+0.2 -0.6 94 -5 -5 1015.9 1000.7
21 23.09 З 3 50 км 8/8 600 м
[Sc]
+2.6 +0.7 87 -2 -2 1016.3 1001.3
00 24.09 ЮЗ 2 50 км 10/0
[Ci fib]
+5.1 +0.7 73 +3 +4 1016.7 1001.8 -0.3
03 24.09 СЗ 2 50 км 9/0
[Ci fib]
+8.8 0.0 54 +7 +11 1016.5 1001.8
06 24.09 З 3 50 км 10/0
[Ci fib]
+10.6 -0.3 47 +9 +11 1016.3 1001.7
09 24.09 штиль 0 50 км 3/0
[Ac trans Ci fib]
+9.2 -0.7 50 +9 +9 1016.0 1001.3
12 24.09 ЮЗ 2 20 км ясно -0.7 -3.5 81 -4 -4 1016.8 1001.6 +12.2
15 24.09 ЮЗ 2 20 км ясно -3.8 -5.6 87 -8 -8 1017.0 1001.6
18 24.09 З 2 20 км ясно -5.7 -7.2 89 -10 -10 1017.0 1001.4
21 24.09 ЮЗ 2 50 км 3/0
[Ac trans]
-6.8 -7.7 93 -11 -11 1016.3 1000.7
00 25.09 ЮЗ 1 50 км 10/0
[Ci fib]
+0.6 -1.4 86 -1 0 1016.0 1000.9 -6.8
03 25.09 ЮЗ 4 50 км 3/0
[Ci fib]
+10.2 +1.6 55 +8 +11 1014.4 999.7
06 25.09 ЮЗ 6 50 км 3/0
[Ci fib]
+15.0 +2.2 42 +14 +14 1012.8 998.4
09 25.09 ЮЗ 3 50 км 3/0
[Ci fib]
+14.1 +1.7 43 +13 +13 1012.6 998.1

 

Местоположение метеостанции Покровск (Якутия, Россия): широта 61.48 долгота 129.10 высота над уровнем моря 121 м.

В архиве по умолчанию представлена погода в Покровске за последнюю неделю. Архивные данные за месяц целиком и за предыдущие месяцы, начиная с января 2011 года, Вы можете получить, выбрав интересующий диапазон дат из раскрывающегося списка и нажав кнопку "Ввод!".


*Определитесь, кто Вы:
робот инопланетянин человек

Внимание! Время в таблицах - всемирное. Для получения местного времени необходимо прибавить поправку, которая в Покровске равна 9 ч.

Смотрите также архив погоды в соседних городах и на ближайших метеорологических станциях:

Погода в Якутске (Якутия, Россия) (64 км)
Погода в Тегюльте (Якутия, Россия) (122 км)
Погода в Намцах (Якутия, Россия) (140 км)
Погода в Бердигестяхе (Якутия, Россия) (141 км)
Погода в Амге (Якутия, Россия) (163 км)
Погода в Чурапче (Якутия, Россия) (194 км)
Погода в Исите (Якутия, Россия) (217 км)
Погода в Батамае (Якутия, Россия) (227 км)
Погода в Буяге (Якутия, Россия) (232 км)
Погода в Тонгулахе (Якутия, Россия) (247 км)

Пояснения к столбцам:

Ветер - указаны скорость ветра в м/с - средняя за 10 мин, порывы в срок и между сроками (в фигурных скобках) и направление, откуда дует ветер: С - северный, СВ - северо-восточный, В - восточный, ЮВ - юго-восточный, Ю - южный, ЮЗ - юго-западный, З - западный, СЗ - северо-западный.
Видимость - горизонтальная дальность видимости в метрах или километрах. При видимости от 1 до 10 км при отсутствии осадков обычно наблюдается дымка, при ухудшении видимости до 1 км и менее - туман. В сухую погоду видимость может ухудшаться дымом, пылью или мглою.
Явления - указаны атмосферные явления, наблюдавшиеся в срок или в последний час перед сроком; фигурными скобками обозначены явления, наблюдавшиеся между сроками (за 1-3 часа до срока); квадратными скобками обозначены град или гололедные отложения с указанием их диаметра в мм.
Облачность - указаны через наклонную черту общая и нижняя облачность в баллах и высота нижней границы облаков в метрах; квадратными скобками обозначены формы облаков: Ci - перистые, Cs - перисто-слоистые, Cc - перисто-кучевые, Ac - высококучевые, As - высокослоистые, Sc - слоисто-кучевые, Ns - слоисто-дождевые, Cu - кучевые, Cb - кучево-дождевые. Подробнее классификацию облаков см. в Атласе облаков (PDF).
T - Температура воздуха - температура, измеренная на высоте 2 м над землей.
Td - Температура точки росы - температура, при понижении до которой содержащийся в воздухе водяной пар достигнет насыщения.
f - Относительная влажность воздуха - влажноcть воздуха, измеренная на высоте 2 м над землей.
Te - Эффективная температура - температура, которую ощущает одетый по сезону человек в тени. Характеристика душности погоды. При расчете учитывается влияние влажности воздуха и скорости ветра на теплоощущения человека.
Tes - Эффективная температура на солнце - температура, которую ощущает человек, с поправкой на солнечный нагрев. Характеристика знойности погоды. Зависит от высоты солнца над горизонтом, облачности и скорости ветра. Ночью, в пасмурную погоду, а также при ветре 12 м/с и более поправка равна нулю.
P - Атмосферное давление - приведенное к уровню моря атмосферное давление.
Po - Атмосферное давление - измеренное на уровне метеостанции атмосферное давление.
Tmin - Минимальная температура - минимум температуры воздуха на высоте 2 м над землей.
Tmax - Максимальная температура - максимум температуры воздуха на высоте 2 м над землей.
R - Количество осадков - Количество выпавших осадков за период времени, мм. При наведении курсора мыши на число - период времени, за который выпало указанное количество осадков.
R24 - Количество осадков - Количество выпавших осадков за 24 часа, мм.
S - Снежный покров - Высота снежного покрова, см. При наведении курсора мыши на число - состояние снежного покрова и степень покрытия местности в баллах.